Orbital Elements
Epoch 2022 Aug. 9.0 TT = JDT 2459800.5
T 2023 Jan. 12.78819 TT Rudenko
q 1.1122649 (2000.0) P Q
z -0.0002468 Peri. 145.81445 -0.60062558 -0.07339913
+/-0.0000056 Node 302.55385 +0.33752809 +0.87941685
e 1.0002746 Incl. 109.16846 +0.72479218 -0.47036005
From 1098 observations 2021 Oct. 25-2022 June 27, mean residual 0".4.
|